| time (UTC) | temp C | wind direction | speed KPH | gust KPH | rain 1hr cm | rain 24hr cm | rain mn cm | humidity % | barometer mb |
| 20260503034654 | -17 | 180 | 0.0 | 0.0 | 0.00 | 0.00 | 0.00 | 1014.1 | |
| 20260503033751 | -17 | 180 | 0.0 | 0.0 | 0.00 | 0.00 | 0.00 | 1014.2 | |
| 20260503033654 | -17 | 180 | 0.0 | 0.0 | 0.00 | 0.00 | 0.00 | 1014.2 | |
| 20260503032731 | -17 | 180 | 0.0 | 0.0 | 0.00 | 0.00 | 0.00 | 1014.2 | |
| 20260503032654 | -17 | 180 | 0.0 | 0.0 | 0.00 | 0.00 | 0.00 | 1014.2 | |
| 20260503031658 | -17 | 180 | 0.0 | 0.0 | 0.00 | 0.00 | 0.00 | 1014.2 | |
| 20260503025658 | -17 | 180 | 0.0 | 0.0 | 0.00 | 0.00 | 0.00 | 1014.3 | |
| 20260503022654 | -17 | 180 | 0.0 | 0.0 | 0.00 | 0.00 | 0.00 | 1014.5 | |
| 20260503021654 | -17 | 180 | 0.0 | 0.0 | 0.00 | 0.00 | 0.00 | 1014.5 | |
| 20260503020654 | -17 | 180 | 0.0 | 0.0 | 0.00 | 0.00 | 0.00 | 1014.4 | |
| 20260503015654 | -17 | 180 | 0.0 | 0.0 | 0.00 | 0.00 | 0.00 | 1014.6 | |
| 20260503014654 | -17 | 180 | 0.0 | 0.0 | 0.00 | 0.00 | 0.00 | 1014.6 | |
| 20260503011654 | -17 | 180 | 0.0 | 0.0 | 0.00 | 0.00 | 0.00 | 1014.7 | |
| 20260503005654 | -17 | 180 | 0.0 | 0.0 | 0.00 | 0.00 | 0.00 | 1014.8 | |
| 20260503004654 | -17 | 180 | 0.0 | 0.0 | 0.00 | 0.00 | 0.00 | 1014.8 | |
| 20260503003726 | -17 | 180 | 0.0 | 0.0 | 0.00 | 0.00 | 0.00 | 1014.9 | |
| 20260503003654 | -17 | 180 | 0.0 | 0.0 | 0.00 | 0.00 | 0.00 | 1014.9 | |
| 20260503002654 | -17 | 180 | 0.0 | 0.0 | 0.00 | 0.00 | 0.00 | 1014.9 | |
| 20260503001728 | -17 | 180 | 0.0 | 0.0 | 0.00 | 0.00 | 0.00 | 1014.9 | |
| 20260503001654 | -17 | 180 | 0.0 | 0.0 | 0.00 | 0.00 | 0.00 | 1014.9 | |
| 20260503000654 | -17 | 180 | 0.0 | 0.0 | 0.00 | 0.00 | 0.00 | 1014.9 | |
| 20260502235654 | -17 | 180 | 0.0 | 0.0 | 0.00 | 0.00 | 0.00 | 1014.9 | |
| 20260502230654 | -17 | 180 | 0.0 | 0.0 | 0.00 | 0.00 | 0.00 | 1015.3 | |
| 20260502120655 | 20 | 225 | 0.0 | 0.0 | 0.00 | 0.00 | 0.00 | 37 | 1021.1 |
| 20260502115655 | 20 | 247 | 0.0 | 0.0 | 0.00 | 0.00 | 0.00 | 38 | 1021.1 |
| 20260502114655 | 20 | 225 | 0.0 | 0.0 | 0.00 | 0.00 | 0.00 | 38 | 1021.4 |
| 20260502112655 | 19 | 225 | 0.0 | 0.0 | 0.00 | 0.00 | 0.00 | 39 | 1021.6 |
| 20260502104655 | 18 | 247 | 0.0 | 0.0 | 0.00 | 0.00 | 0.00 | 42 | 1022.1 |
| 20260502103655 | 18 | 247 | 0.0 | 0.0 | 0.00 | 0.00 | 0.00 | 43 | 1022.0 |
| 20260502100655 | 17 | 225 | 0.0 | 0.0 | 0.00 | 0.00 | 0.00 | 47 | 1022.1 |
| 20260502090656 | 16 | 247 | 0.0 | 0.0 | 0.00 | 0.00 | 0.00 | 51 | 1022.6 |
| 20260502070655 | 14 | 202 | 0.0 | 0.0 | 0.00 | 0.00 | 0.00 | 56 | 1022.7 |
| 20260502065655 | 14 | 247 | 0.0 | 0.0 | 0.00 | 0.00 | 0.00 | 56 | 1022.8 |
| 20260502064655 | 14 | 225 | 0.0 | 0.0 | 0.00 | 0.00 | 0.00 | 56 | 1022.8 |
| 20260502063655 | 14 | 247 | 0.0 | 0.0 | 0.00 | 0.00 | 0.00 | 57 | 1022.7 |
| 20260502062655 | 13 | 225 | 0.0 | 0.0 | 0.00 | 0.00 | 0.00 | 56 | 1022.8 |
| 20260502061700 | 13 | 247 | 0.0 | 0.0 | 0.00 | 0.00 | 0.00 | 56 | 1022.8 |
| 20260502060655 | 14 | 225 | 0.0 | 0.0 | 0.00 | 0.00 | 0.00 | 55 | 1022.7 |
| 20260502055655 | 15 | 202 | 0.0 | 0.0 | 0.00 | 0.00 | 0.00 | 53 | 1022.7 |
| 20260502054655 | 15 | 247 | 0.0 | 0.0 | 0.00 | 0.00 | 0.00 | 53 | 1022.7 |
| 20260502053658 | 16 | 247 | 0.0 | 0.0 | 0.00 | 0.00 | 0.00 | 52 | 1022.8 |
| 20260502052658 | 16 | 225 | 0.0 | 0.0 | 0.00 | 0.00 | 0.00 | 52 | 1022.6 |
| 20260502051655 | 16 | 202 | 0.0 | 0.0 | 0.00 | 0.00 | 0.00 | 53 | 1022.8 |
| 20260502050655 | 16 | 270 | 0.0 | 0.0 | 0.00 | 0.00 | 0.00 | 53 | 1022.6 |
| 20260502045658 | 16 | 225 | 0.0 | 0.0 | 0.00 | 0.00 | 0.00 | 54 | 1022.5 |
| 20260502044655 | 15 | 225 | 0.0 | 0.0 | 0.00 | 0.00 | 0.00 | 55 | 1022.5 |
| 20260502043655 | 15 | 247 | 0.0 | 0.0 | 0.00 | 0.00 | 0.00 | 57 | 1022.6 |
| 20260502042655 | 15 | 202 | 0.0 | 0.0 | 0.00 | 0.00 | 0.00 | 59 | 1022.5 |
| 20260502041655 | 14 | 225 | 0.0 | 0.0 | 0.00 | 0.00 | 0.00 | 60 | 1022.4 |
| 20260502040655 | 13 | 225 | 0.0 | 0.0 | 0.00 | 0.00 | 0.00 | 62 | 1022.5 |
| 20260502035655 | 13 | 225 | 0.0 | 0.0 | 0.00 | 0.00 | 0.00 | 64 | 1022.4 |